Total_Precipitation_Accumulation
0.01 0.07 0.24 0.52 1.15 1.49 1.29 0.71 0.53 0.42 0.42 0.43 0.45 0.43 0.45 0.50 0.78 1.12 0.69 0.36 0.13 0.04 0.05 0.15 0.28 0.25 0.21 0.19 0.18 0.19 0.19 0.18 0.17 0.14 0.11 0.10 0.10 0.10 0.10 0.11 0.12 0.14 0.16 0.19 0.23 0.23 0.22 0.24 0.28
0.04 0.11 0.32 0.79 1.45 1.49 1.10 0.60 0.45 0.36 0.39 0.39 0.36 0.40 0.52 0.57 0.45 0.44 0.48 0.36 0.13 0.05 0.03 0.06 0.19 0.24 0.22 0.20 0.20 0.20 0.20 0.18 0.16 0.14 0.12 0.11 0.11 0.11 0.12 0.13 0.14 0.17 0.19 0.20 0.23 0.21 0.22 0.25 0.29
0.07 0.15 0.35 0.80 0.98 0.96 0.76 0.48 0.41 0.32 0.43 0.58 0.49 0.41 0.53 0.67 0.50 0.40 0.37 0.22 0.12 0.09 0.07 0.10 0.17 0.19 0.21 0.21 0.22 0.21 0.19 0.18 0.16 0.15 0.13 0.14 0.13 0.16 0.16 0.16 0.18 0.21 0.23 0.24 0.25 0.21 0.24 0.22 0.23
0.08 0.21 0.39 0.52 0.41 0.38 0.39 0.40 0.40 0.43 0.63 0.78 0.64 0.52 0.56 0.53 0.49 0.42 0.32 0.21 0.15 0.12 0.11 0.14 0.19 0.20 0.21 0.22 0.22 0.22 0.19 0.17 0.16 0.15 0.15 0.17 0.20 0.22 0.19 0.19 0.23 0.23 0.24 0.27 0.29 0.23 0.22 0.22 0.24
0.07 0.26 0.51 0.37 0.22 0.23 0.24 0.29 0.44 0.50 0.74 0.82 0.61 0.62 0.68 0.60 0.57 0.54 0.39 0.33 0.30 0.32 0.29 0.27 0.29 0.26 0.25 0.24 0.24 0.24 0.22 0.20 0.18 0.16 0.18 0.21 0.22 0.25 0.26 0.26 0.28 0.25 0.26 0.30 0.34 0.29 0.25 0.31 0.37
0.06 0.20 0.32 0.23 0.14 0.13 0.17 0.24 0.38 0.51 0.73 0.79 0.64 0.81 0.84 0.83 0.80 0.75 0.70 0.71 0.65 0.69 0.62 0.54 0.50 0.41 0.34 0.30 0.30 0.30 0.28 0.24 0.23 0.22 0.22 0.23 0.25 0.26 0.29 0.31 0.33 0.31 0.33 0.35 0.34 0.30 0.31 0.38 0.43
0.04 0.14 0.19 0.13 0.08 0.10 0.17 0.24 0.41 0.56 0.73 0.94 0.90 0.98 0.98 1.06 1.04 0.97 0.95 0.98 1.01 0.98 0.92 0.71 0.57 0.51 0.45 0.45 0.41 0.37 0.34 0.32 0.31 0.30 0.26 0.26 0.26 0.26 0.28 0.35 0.38 0.36 0.37 0.39 0.39 0.37 0.40 0.43 0.45
0.02 0.05 0.09 0.07 0.04 0.06 0.14 0.24 0.38 0.54 0.79 0.94 0.95 1.01 1.01 0.98 1.04 1.12 1.16 1.28 1.45 1.28 1.12 0.84 0.68 0.68 0.56 0.51 0.49 0.44 0.39 0.36 0.36 0.35 0.35 0.35 0.35 0.34 0.38 0.42 0.45 0.43 0.41 0.41 0.44 0.47 0.49 0.51 0.50
0.01 0.02 0.04 0.04 0.02 0.04 0.13 0.30 0.43 0.47 0.62 0.93 1.17 1.02 0.85 0.92 1.20 1.35 1.56 1.63 1.77 1.67 1.26 0.89 0.85 0.95 0.82 0.62 0.56 0.62 0.56 0.54 0.55 0.59 0.58 0.66 0.80 0.77 0.80 0.67 0.66 0.65 0.68 0.69 0.72 0.74 0.77 0.75 0.61
0.00 0.02 0.03 0.02 0.01 0.03 0.14 0.36 0.51 0.60 0.88 1.22 1.43 1.24 1.00 0.97 1.37 1.68 1.76 1.80 1.54 1.63 1.58 1.21 1.01 0.99 0.92 0.77 0.75 1.02 1.03 1.03 1.09 1.19 1.13 1.26 1.28 1.13 0.87 0.86 1.02 1.02 1.15 1.26 1.42 1.53 1.33 1.08 0.93
0.00 0.01 0.01 0.02 0.01 0.05 0.18 0.21 0.29 0.54 1.10 1.50 1.74 1.36 1.09 1.13 1.44 1.89 1.99 1.87 1.59 1.61 1.53 1.51 1.27 1.12 1.08 1.14 1.07 1.19 1.32 1.42 1.52 1.47 1.50 1.66 1.42 1.19 1.06 1.19 1.45 1.48 1.59 1.70 1.96 2.09 1.58 1.59 1.85
0.00 0.00 0.01 0.01 0.01 0.03 0.11 0.19 0.33 0.63 1.11 1.38 1.29 1.13 1.12 1.28 1.46 1.96 2.22 2.01 1.85 1.78 1.71 1.94 1.80 1.63 1.56 1.47 1.46 1.30 1.24 1.31 1.43 1.50 1.51 1.65 1.59 1.46 1.47 1.53 1.57 1.75 1.92 2.16 2.11 2.24 2.25 2.36 2.26
0.00 0.00 0.01 0.01 0.02 0.03 0.08 0.19 0.30 0.53 0.82 0.88 0.79 0.95 1.34 1.41 1.62 2.11 2.61 2.54 2.37 2.19 2.22 2.40 2.38 2.41 2.26 1.96 1.75 1.42 1.33 1.27 1.28 1.36 1.39 1.60 1.82 1.80 1.87 1.67 1.65 1.47 1.73 2.10 2.32 2.36 2.60 2.73 2.68
0.00 0.01 0.01 0.02 0.04 0.05 0.08 0.16 0.32 0.70 0.72 0.67 0.80 1.10 1.41 1.73 1.80 2.16 2.76 2.88 2.80 2.78 2.93 2.93 2.94 2.88 2.71 2.24 1.95 1.73 1.46 1.43 1.35 1.38 1.48 1.91 2.08 1.96 2.01 1.92 1.81 1.58 1.70 2.02 2.35 2.43 2.70 2.70 2.76
0.01 0.03 0.08 0.09 0.07 0.08 0.11 0.34 0.58 0.76 0.73 0.74 0.96 1.17 1.59 2.10 2.25 2.44 2.82 3.02 3.18 3.44 3.60 3.73 3.66 3.31 3.18 2.77 2.21 1.87 1.59 1.39 1.44 1.58 1.72 2.00 2.15 2.22 2.34 2.25 1.90 1.73 1.88 2.05 2.06 2.20 2.66 2.52 2.52
0.02 0.06 0.23 0.17 0.09 0.10 0.17 0.56 0.77 0.80 0.83 0.90 1.11 1.42 1.73 2.16 2.18 2.37 2.65 3.10 3.53 4.01 4.38 4.51 4.27 4.04 3.81 3.31 2.79 2.41 2.16 1.94 1.91 1.90 1.80 1.72 1.91 2.04 2.15 1.89 1.54 1.68 1.92 2.07 2.00 2.01 2.37 2.44 2.49
0.05 0.09 0.18 0.18 0.12 0.11 0.20 0.57 0.62 0.53 0.87 1.21 1.42 1.60 1.72 1.87 1.97 2.16 2.45 3.01 3.63 4.31 4.97 5.29 5.43 4.86 4.21 3.52 3.01 2.61 2.48 2.31 2.10 1.87 1.66 1.46 1.34 1.32 1.41 1.28 1.20 1.35 1.60 1.64 1.46 1.59 1.87 2.02 2.17
0.04 0.08 0.14 0.19 0.16 0.16 0.27 0.51 0.64 0.56 0.83 1.13 1.19 1.47 1.58 1.58 1.77 2.14 2.63 3.04 3.77 4.48 5.13 5.48 5.59 4.91 4.03 3.51 3.27 2.93 2.62 2.34 2.04 1.70 1.44 1.19 1.10 0.99 1.05 1.05 0.97 1.01 1.05 1.11 1.25 1.44 1.58 1.53 1.63
0.03 0.07 0.15 0.17 0.16 0.23 0.37 0.62 0.75 0.73 0.77 0.89 1.00 1.19 1.23 1.28 1.55 2.00 2.62 3.22 3.90 4.88 5.43 5.48 5.10 4.21 3.53 2.99 2.73 2.46 2.21 1.98 1.69 1.37 1.15 1.03 0.99 0.89 0.90 0.86 0.84 0.85 0.82 0.83 0.98 1.10 1.14 1.01 1.18
0.05 0.09 0.17 0.16 0.12 0.14 0.34 0.65 0.75 0.81 0.86 0.84 0.89 0.99 0.92 1.04 1.38 2.01 2.78 3.52 4.02 4.45 4.70 4.62 4.09 3.26 2.74 2.38 2.29 2.09 1.86 1.50 1.33 1.16 1.03 0.90 0.84 0.78 0.75 0.77 0.71 0.67 0.72 0.72 0.75 0.87 0.90 0.82 0.93
0.08 0.09 0.14 0.17 0.13 0.15 0.35 0.76 0.88 0.87 0.85 0.82 0.71 0.71 0.81 1.02 1.59 2.36 3.16 3.77 3.89 3.80 3.51 3.13 2.81 2.41 2.25 2.18 2.00 1.78 1.67 1.39 1.14 0.91 0.81 0.73 0.64 0.57 0.55 0.53 0.52 0.54 0.55 0.58 0.64 0.72 0.79 0.74 0.69
0.09 0.07 0.05 0.07 0.11 0.32 0.45 0.87 0.96 0.96 0.94 0.78 0.68 0.75 0.90 1.15 1.70 2.42 2.97 3.10 3.10 2.87 2.50 2.23 2.12 2.03 1.92 1.83 1.69 1.38 1.15 1.08 0.93 0.81 0.74 0.67 0.55 0.49 0.46 0.43 0.41 0.41 0.40 0.48 0.47 0.57 0.69 0.71 0.61
0.05 0.04 0.04 0.08 0.18 0.34 0.47 0.75 0.99 0.97 1.07 0.68 0.51 0.61 0.74 0.98 1.27 1.50 1.71 1.78 1.84 1.76 1.82 1.85 1.90 1.91 1.81 1.72 1.60 1.41 1.14 1.06 1.01 0.97 0.92 0.81 0.67 0.56 0.48 0.46 0.42 0.40 0.35 0.38 0.42 0.51 0.61 0.68 0.62
0.04 0.06 0.12 0.21 0.36 0.70 0.69 0.80 1.08 1.04 0.89 0.50 0.32 0.37 0.57 0.72 0.78 0.87 0.93 0.96 1.15 1.17 1.26 1.38 1.44 1.55 1.63 1.57 1.39 1.28 1.14 1.08 1.05 0.95 0.82 0.70 0.63 0.59 0.51 0.50 0.52 0.47 0.43 0.40 0.40 0.45 0.49 0.60 0.68
0.05 0.09 0.31 0.63 0.98 1.03 0.61 0.70 1.06 0.98 0.65 0.35 0.23 0.21 0.28 0.43 0.62 0.74 0.80 0.83 0.97 0.90 0.91 1.04 1.12 1.13 1.20 1.19 1.11 1.07 1.08 1.04 0.96 0.85 0.74 0.62 0.49 0.46 0.45 0.45 0.47 0.49 0.50 0.49 0.48 0.48 0.47 0.52 0.60
0.06 0.07 0.18 0.35 0.45 0.60 0.63 1.09 1.28 0.70 0.39 0.24 0.17 0.15 0.20 0.32 0.49 0.57 0.55 0.62 0.70 0.63 0.67 0.80 0.90 0.91 0.92 0.94 0.95 0.92 0.96 0.85 0.80 0.85 0.75 0.63 0.52 0.46 0.45 0.44 0.42 0.45 0.50 0.53 0.59 0.55 0.54 0.57 0.56
0.06 0.05 0.07 0.09 0.16 0.42 0.77 1.08 0.97 0.54 0.37 0.21 0.17 0.16 0.18 0.24 0.35 0.40 0.34 0.37 0.46 0.52 0.56 0.64 0.77 0.82 0.78 0.81 0.84 0.80 0.85 0.85 0.83 0.81 0.72 0.60 0.61 0.53 0.51 0.49 0.52 0.56 0.59 0.63 0.66 0.61 0.58 0.60 0.56
0.06 0.06 0.07 0.10 0.18 0.37 0.67 1.05 1.17 0.82 0.44 0.25 0.23 0.24 0.23 0.22 0.26 0.26 0.27 0.26 0.32 0.42 0.52 0.61 0.70 0.75 0.73 0.75 0.76 0.66 0.75 0.82 0.88 0.82 0.72 0.64 0.67 0.60 0.61 0.60 0.59 0.63 0.63 0.63 0.67 0.65 0.70 0.73 0.72
0.09 0.08 0.10 0.10 0.11 0.21 0.50 0.74 0.60 0.56 0.36 0.31 0.29 0.29 0.24 0.22 0.24 0.22 0.20 0.21 0.25 0.31 0.43 0.53 0.66 0.71 0.71 0.72 0.79 0.84 0.83 0.74 0.80 0.80 0.79 0.79 0.81 0.72 0.73 0.73 0.74 0.73 0.74 0.78 0.82 0.82 0.87 0.94 1.03
0.11 0.11 0.12 0.13 0.12 0.12 0.26 0.38 0.36 0.50 0.45 0.38 0.34 0.34 0.34 0.23 0.21 0.23 0.22 0.20 0.24 0.27 0.33 0.42 0.52 0.63 0.67 0.70 0.80 0.86 0.91 0.82 0.80 0.81 0.83 0.85 0.91 0.96 0.93 0.87 0.86 0.81 0.84 0.93 0.95 0.97 0.94 0.93 0.96